Location: Newark
(25.0000°N, 73.5000°E)
Time: 05:01:29
(UTC+00:00)

Altair - Pass Details

Date: 05 March 2021
Orbit: 1501 x 1683 km, 47.2° (Epoch: 12 April)

Event Time Altitude Azimuth Distance (km) Brightness Sun altitude
Rises 11:58:17 0° 229° (SW) 4,635 11.2 15.2°
Reaches altitude 10° 12:01:18 10° 230° (SW) 3,647 10.8 14.5°
Maximum altitude 12:10:27 80° 317° (NW) 1,521 7.8 12.5°
Drops below altitude 10° 12:19:44 10° 45° (NE) 3,688 9.0 10.5°
Sets 12:22:49 0° 46° (NE) 4,690 9.5 9.8°
